www.pogodaiklimat.ru

Погода и климат >> Архив погоды >> Канада >> Dubawnt Lake


ПОГОДА в Dubawnt Lake

  • Прогноз погоды в Dubawnt Lake
  • Монитор погоды в Dubawnt Lake
  • Климат города

АРХИВ ПОГОДЫ в Dubawnt Lake

Время (UTC), дата Ветер
(напр.,м/с)
 
Видим.   Явления Облачность Т
(С)
Тd
(С)
f
(%)
Тe
(С)
Тes
(С)
Комфортность P
(гПа)
Po
(гПа)
Тmin
(С)
Tmax
(С)
R
(мм)
S
(см)
09 20.02 В 6 1200 м слаб. снег {осадки} н/о -5.5 -6.3 94 -13 -13 1007.8 944.7
12 20.02 В 4 1600 м слаб. снег н/о -6.3 -7.3 93 -13 -13 1006.8 943.7 -6.7 -4.2
15 20.02 В 4 1200 м слаб. снег н/о -7.2 -8.1 93 -14 -14 1005.6 942.5
18 20.02 ЮВ 4 16 км {осадки} 10/10 300 м
[]
-6.2 -7.9 88 -12 -12 1004.1 941.2 -7.2 -5.2 2
21 20.02 ЮВ 3 8000 м слаб. снег 10/10 100 м
[]
-5.8 -6.5 95 -11 -11 1003.2 940.3
00 21.02 Ю 2 14 км слаб. снег 10/10 100 м
[]
-5.7 -6.2 96 -10 -10 1003.7 940.8 -7.2 -5.6
03 21.02 Ю 2 6000 м дымка 10/10 100 м
[]
-5.5 -5.8 98 -10 -10 1003.4 940.4
06 21.02 З 3 16 км 10/10 300 м
[]
-4.8 -5.8 93 -10 -10 1003.1 940.3 -7.2 -4.8 9
09 21.02 З 3 16 км 10/10 600 м
[]
-6.9 -8.0 92 -12 -12 1004.3 941.3
12 21.02 З 3 16 км 9/9 600 м
[]
-7.4 -8.3 93 -13 -13 1005.0 941.9 -7.5 -4.8
15 21.02 ЮЗ 2 16 км слаб. снег 10/10 300 м
[]
-6.8 -7.6 94 -11 -11 1004.5 941.5
18 21.02 З 5 1200 м слаб. снег 10/10 300 м
[]
-5.3 -7.0 88 -12 -12 1004.9 942.0 -8.0 -4.6
21 21.02 СЗ 6 11 км слаб. снег 10/10 300 м
[]
-6.4 -9.8 77 -14 -14 1006.2 943.0
00 22.02 СЗ 4 16 км слаб. снег 10/10 600 м
[]
-8.7 -11.9 78 -16 -16 1008.4 944.9 -8.7 -5.0
03 22.02 СЗ 4 16 км слаб. снег 10/10 300 м
[]
-10.0 -12.2 84 -17 -17 1010.2 946.5
06 22.02 СЗ 4 8000 м слаб. снег 10/10 600 м
[]
-11.0 -12.9 86 -18 -18 1011.3 947.6 -11.0 -4.6 21
09 22.02 З 3 16 км 10/10 600 м
[]
-11.7 -13.3 88 -18 -18 1012.7 948.8
12 22.02 СЗ 3 16 км слаб. снег 10/10 1000 м
[]
-12.8 -14.4 88 -19 -19 1015.2 950.9 -12.8 -4.6
15 22.02 СЗ 2 8000 м слаб. снег 10/10 1000 м
[]
-13.6 -15.3 87 -17 -17 1016.9 952.4
18 22.02 С 3 16 км слаб. снег 10/10 1500 м
[]
-12.4 -15.6 77 -18 -18 1018.2 953.6 -13.6 -11.0
21 22.02 С 2 9000 м слаб. снег 10/10 1500 м
[]
-12.1 -15.4 76 -17 -17 1019.3 954.6
00 23.02 В 3 6000 м слаб. снег 10/10 1000 м
[]
-13.2 -15.4 83 -20 -20 1020.9 956.0 -13.6 -11.8
03 23.02 В 1 11 км слаб. снег ясно -19.2 -20.9 86 -20 -20 1022.6 957.1
06 23.02 З 1 9000 м слаб. снег 10/10 600 м
[]
-23.3 -25.7 81 -24 -24 1023.5 957.7 -23.5 -11.0
09 23.02 В 1 9000 м слаб. снег 9/9 1000 м
[]
-24.9 -27.3 80 -29 -29 1024.2 958.3
12 23.02 З 1 3200 м слаб. снег 10/10 600 м
[]
-23.1 -25.4 81 -24 -24 1024.5 958.6 -25.2 -11.0 0.0
15 23.02 В 1 9000 м слаб. снег 10/10 1000 м
[]
-21.4 -23.6 82 -22 -22 1024.8 958.6
18 23.02 В 2 4800 м слаб. снег 10/10 1000 м
[]
-16.5 -19.6 77 -22 -22 1024.6 958.5 -25.2 -16.5 0.0
21 23.02 ЮВ 2 16 км слаб. снег 10/10 300 м
[]
-13.6 -17.8 71 -17 -17 1024.1 958.1
00 24.02 В 3 6000 м слаб. снег 9/9 300 м
[]
-14.6 -17.2 81 -21 -21 1024.3 958.3 -25.2 -12.9
03 24.02 В 2 11 км слаб. снег 10/10 600 м
[]
-17.0 -19.2 83 -22 -22 1024.7 958.7
06 24.02 В 2 16 км 10/10 600 м
[]
-18.3 -20.2 85 -23 -23 1024.6 958.8 -25.2 -12.9
09 24.02 З 1 11 км слаб. снег 10/10 600 м
[]
-18.9 -20.9 84 -22 -22 1024.8 959.2
12 24.02 Ю 1 16 км 10/10 600 м
[]
-18.7 -20.6 85 -19 -19 1024.4 958.7 -19.4 -12.9
15 24.02 З 1 14 км слаб. снег 10/10 600 м
[]
-18.1 -20.2 84 -21 -21 1024.5 958.7
18 24.02 СЗ 3 14 км 9/9 1000 м
[]
-15.0 -18.3 76 -22 -22 1024.3 958.6 -19.4 -15.0
21 24.02 СЗ 5 16 км 5/5 300 м
[]
-14.8 -19.2 69 -23 -23 1024.2 958.5
00 25.02 З 4 16 км 10/10 600 м
[]
-16.8 -20.7 72 -25 -25 1024.0 958.2 -19.4 -14.0
03 25.02 З 3 14 км слаб. снег 9/9 600 м
[]
-20.5 -22.7 82 -28 -28 1023.4 957.4
06 25.02 З 2 16 км 10/10 600 м
[]
-21.9 -24.3 81 -28 -28 1021.5 955.8 -22.2 -14.0
09 25.02 З 2 16 км слаб. снег 10/10 600 м
[]
-20.7 -23.5 78 -26 -26 1018.8 953.3
12 25.02 З 2 14 км слаб. снег 10/10 300 м
[]
-20.0 -22.6 80 -26 -26 1015.9 950.5 -22.2 -14.0
15 25.02 ЮЗ 3 9000 м слаб. снег 5/5 300 м
[]
-20.7 -23.2 80 -28 -28 1013.2 947.7
18 25.02 ЮЗ 4 16 км ясно -16.1 -19.9 72 -24 -22 1009.4 944.4 -22.2 -16.1
21 25.02 Ю 2 14 км 9/9 600 м
[]
-12.3 -16.9 68 -16 -16 1006.4 941.9
00 26.02 ЮВ 2 16 км 3/0
[]
-13.2 -17.1 72 -18 -18 1005.3 940.9 -21.9 -11.6
03 26.02 ЮЗ 1 2800 м слаб. снег 10/10 600 м
[]
-15.9 -17.7 86 -19 -19 1005.1 940.4
06 26.02 С 2 2800 м слаб. снег 10/10 600 м
[]
-16.4 -18.2 86 -21 -21 1005.2 940.8 -21.9 -11.6
09 26.02 С 3 4800 м слаб. снег 5/5 300 м
[]
-21.0 -23.1 83 -28 -28 1007.5 942.9
12 26.02 С 3 16 км слаб. снег {осадки} 10/10 600 м
[]
-21.5 -23.9 81 -30 -30 1010.5 945.6 -21.8 -11.6 0.0
15 26.02 С 2 16 км слаб. снег {осадки} 9/9 600 м
[]
-26.3 -29.2 76 -32 -32 опасность
обморожения
1013.3 947.7
18 26.02 СЗ 4 16 км 5/5 300 м
[]
-22.7 -26.6 70 -32 -32 опасность
обморожения
1013.9 948.5 -26.4 -16.4
21 26.02 СЗ 5 16 км ясно -20.7 -25.7 64 -31 -30 опасность
обморожения
1014.2 948.6
00 27.02 СЗ 3 16 км 3/3 600 м
[]
-22.1 -26.0 71 -29 -29 1014.5 948.7 -26.4 -20.3
03 27.02 З 3 12 км 3/0 2000 м
[]
-27.2 -29.8 78 -35 -35 опасность
обморожения
1014.8 948.3

 

Местоположение метеостанции Dubawnt Lake (Канада): широта 63.23 долгота -101.70 высота над уровнем моря 237 м.

В архиве по умолчанию представлена погода в Dubawnt Lake за последнюю неделю. Архивные данные за месяц целиком и за предыдущие месяцы, начиная с января 2011 года, Вы можете получить, выбрав интересующий диапазон дат из раскрывающегося списка и нажав кнопку "Ввод!".

Внимание! Время в таблицах - всемирное. Для получения местного времени необходимо прибавить поправку, которая в Dubawnt Lake равна -6 ч.

Смотрите также архив погоды в соседних городах и на ближайших метеорологических станциях:

Погода в Hanbury River ARS (Канада) (176 км)
Погода в Robertson Lake (Канада) (211 км)
Погода в Baker Lake Airport (Канада) (302 км)
Погода в Baker Lake Climate (Канада) (305 км)
Погода в Fort Reliance (aut) (Канада) (379 км)
Погода в Porter Lake (Канада) (387 км)
Погода в Back River MAPS (Канада) (402 км)
Погода в Lustel Ke A (Канада) (461 км)
Погода в Arviat Climate (Канада) (462 км)
Погода в Arviat (Канада) (462 км)

Пояснения к столбцам:

Ветер - указаны скорость ветра в м/с - средняя за 10 мин, порывы в срок и между сроками (в фигурных скобках) и направление, откуда дует ветер: С - северный, СВ - северо-восточный, В - восточный, ЮВ - юго-восточный, Ю - южный, ЮЗ - юго-западный, З - западный, СЗ - северо-западный.
Видимость - горизонтальная дальность видимости в метрах или километрах. При видимости от 1 до 10 км при отсутствии осадков обычно наблюдается дымка, при ухудшении видимости до 1 км и менее - туман. В сухую погоду видимость может ухудшаться дымом, пылью или мглою.
Явления - указаны атмосферные явления, наблюдавшиеся в срок или в последний час перед сроком; фигурными скобками обозначены явления, наблюдавшиеся между сроками (за 1-3 часа до срока); квадратными скобками обозначены град или гололедные отложения с указанием их диаметра в мм.
Облачность - указаны через наклонную черту общая и нижняя облачность в баллах и высота нижней границы облаков в метрах; квадратными скобками обозначены формы облаков: Ci - перистые, Cs - перисто-слоистые, Cc - перисто-кучевые, Ac - высококучевые, As - высокослоистые, Sc - слоисто-кучевые, Ns - слоисто-дождевые, Cu - кучевые, Cb - кучево-дождевые. Подробнее классификацию облаков см. в Атласе облаков (PDF).
T - Температура воздуха - температура, измеренная на высоте 2 м над землей.
Td - Температура точки росы - температура, при понижении до которой содержащийся в воздухе водяной пар достигнет насыщения.
f - Относительная влажность воздуха - влажноcть воздуха, измеренная на высоте 2 м над землей.
Te - Эффективная температура - температура, которую ощущает одетый по сезону человек в тени. Характеристика душности погоды. При расчете учитывается влияние влажности воздуха и скорости ветра на теплоощущения человека.
Tes - Эффективная температура на солнце - температура, которую ощущает человек, с поправкой на солнечный нагрев. Характеристика знойности погоды. Зависит от высоты солнца над горизонтом, облачности и скорости ветра. Ночью, в пасмурную погоду, а также при ветре 12 м/с и более поправка равна нулю.
P - Атмосферное давление - приведенное к уровню моря атмосферное давление.
Po - Атмосферное давление - измеренное на уровне метеостанции атмосферное давление.
Tmin - Минимальная температура - минимум температуры воздуха на высоте 2 м над землей.
Tmax - Максимальная температура - максимум температуры воздуха на высоте 2 м над землей.
R - Количество осадков - Количество выпавших осадков, мм. При наведении курсора мыши на число - период времени, за который выпало указанное количество осадков.
S - Снежный покров - Высота снежного покрова, см. При наведении курсора мыши на число - состояние снежного покрова и степень покрытия местности в баллах.